Weather in Saint George's

Grenada     12°03′13″N   61°45′05″W
temp.,
°C
wind,
m/s
gust,
m/s
humid.,
%
clouds,
%
prec.,
mm/h
press.,
hPa
HPBL,
m
19 january, wed
wed1923:00+24ene698497 0.7 1015691
02:00+25ene698017 1.3 1015784
05:00+25e797821 0.6 1014867
08:00+25ene79731 1.1 10161071
11:00+27e78665 0.0 10171053
14:00+27e786328 0.0 10151227
17:00+26ene68685 0.0 10141108
20:00+25e69735 0.0 1016955
20 january, thu
thu2023:00+25e79795 0.2 1016886
02:00+25e69815 0.3 1015787
05:00+25e69816 0.1 1014802
08:00+25ene697920 0.4 1016904
11:00+27e797113 0.3 10161128
14:00+27e786914 0.3 10131094
17:00+26ene687714 0.1 1013959
20:00+25ene69755 0.2 1015866
21 january, fri
fri2123:00+25ene69735 0.1 1015968
02:00+25ene710735 0.1 1013986
05:00+25ene79735 0.0 1013980
08:00+26ene79695 0.0 10141095
11:00+27ene78655 0.0 10151201
14:00+27ene67673 0.0 10121143
17:00+26ene68735 0.0 1012955
20:00+25ene79766 0.0 1014888
22 january, sat
sat2223:00+25ene710735 0.0 1014984
02:00+25ene710780 0.1 1012940
05:00+25ene69730 0.1 1012980
08:00+25ene69753 0.3 10141042
11:00+27ene78654 0.1 10151131
14:00+27e67600 0.1 10131014
17:00+26ene67652 0.0 1012981
20:00+24ene58796 0.0 1013689
23 january, sun
sun2323:00+24ene588431 0.5 1014648
02:00+24ene698359 1.1 1012754
05:00+25ene697897 0.8 1012938
08:00+25e69783 1.8 1014831
11:00+25e58809 1.6 1014840
14:00+27ese57691 2.4 10121149
17:00+26e56727 0.2 1011914
20:00+25e58791 0.2 1012664